Tracking 17694 objects as of 29-May-2016
HD Live streaming from Space Station
objects crossing your sky now

COSMOS 2278

Track COSMOS 2278 now!
10-day predictions
COSMOS 2278 is classified as:


NORAD ID: 23087
Int'l Code: 1994-023A
Perigee: 848.6 km
Apogee: 859.0 km
Inclination: 71.1 °
Period: 101.9 minutes
Semi major axis: 7224 km
RCS: 13.2242 m2 (large)
Launch date: April 23, 1994
Source: Commonwealth of Independent States (former USSR) (CIS)
Launch site: TYURATAM MISSILE AND SPACE COMPLEX (TTMTR)
Your satellite tracking list
Your tracking list is empty





NASA's NSSDC Master Catalog

Two Line Element Set (TLE):
1 23087U 94023A   16150.35197422  .00000260  00000-0  16230-3 0  9997
2 23087  71.0531  81.1878 0007186  80.9565 279.2370 14.13711732140248
Source of the keplerian elements: AFSPC

N2YO: 548